When you browse on this site, cookies collect data to enhance your experience and personalize the content and advertising you see.
Visit our Privacy Policy to learn more. By continuing to use the site, you agree to this use of cookies and data.
  • In Slovakia
  • List of Countries
  • For 7 days
  • Water Temperature
  • Weather Map
  • Weather Widgets
  • user-avatar
    Login

    Hourly Weather Neuquén

    Today, 3 April, Friday

    Time Temperature Precipitation Wind Pressure Humidity
    00:00 +14°C° 0 mm 4 mps 737 mmHg 29%
    01:00 +14°C° 0 mm 4 mps 736 mmHg 31%
    02:00 +13°C° 0 mm 4 mps 735 mmHg 32%
    03:00 +13°C° 0 mm 3 mps 735 mmHg 34%
    04:00 +12°C° 0 mm 3 mps 734 mmHg 36%
    05:00 +13°C° 0 mm 3 mps 733 mmHg 35%
    06:00 +14°C° 0 mm 3 mps 733 mmHg 34%
    07:00 +14°C° 0 mm 3 mps 733 mmHg 33%
    08:00 +18°C° 0 mm 4 mps 732 mmHg 29%
    09:00 +20°C° 0 mm 4 mps 732 mmHg 26%
    10:00 +23°C° 0 mm 5 mps 731 mmHg 22%
    11:00 +25°C° 0 mm 4 mps 730 mmHg 20%
    12:00 +27°C° 0 mm 4 mps 729 mmHg 18%
    13:00 +28°C° 0 mm 3 mps 728 mmHg 16%
    14:00 +28°C° 0 mm 3 mps 728 mmHg 15%
    15:00 +29°C° 0 mm 3 mps 727 mmHg 14%
    16:00 +29°C° 0 mm 3 mps 726 mmHg 13%
    17:00 +27°C° 0 mm 3 mps 727 mmHg 15%
    18:00 +25°C° 0 mm 3 mps 727 mmHg 17%
    19:00 +22°C° 0 mm 4 mps 727 mmHg 19%
    20:00 +21°C° 0 mm 5 mps 728 mmHg 27%
    21:00 +21°C° 0 mm 6 mps 728 mmHg 35%
    22:00 +21°C° 0 mm 8 mps 729 mmHg 43%
    23:00 +20°C° 0 mm 7 mps 729 mmHg 46%

    Tomorrow, 4 April, Saturday

    Time Temperature Precipitation Wind Pressure Humidity
    00:00 +19°C° 0 mm 6 mps 729 mmHg 49%
    01:00 +17°C° 0 mm 6 mps 729 mmHg 52%
    02:00 +16°C° 0 mm 5 mps 730 mmHg 56%
    03:00 +15°C° 0 mm 5 mps 730 mmHg 59%
    04:00 +14°C° 0 mm 4 mps 730 mmHg 62%
    05:00 +14°C° 0 mm 4 mps 731 mmHg 57%
    06:00 +15°C° 0 mm 4 mps 731 mmHg 52%
    07:00 +15°C° 0 mm 4 mps 732 mmHg 47%
    08:00 +18°C° 0 mm 4 mps 732 mmHg 39%
    09:00 +19°C° 0 mm 4 mps 732 mmHg 32%
    10:00 +21°C° 0 mm 3 mps 732 mmHg 24%
    11:00 +21°C° 0 mm 3 mps 732 mmHg 22%
    12:00 +22°C° 0 mm 3 mps 731 mmHg 19%
    13:00 +24°C° 0 mm 3 mps 731 mmHg 17%
    14:00 +24°C° 0 mm 3 mps 730 mmHg 16%
    15:00 +24°C° 0 mm 3 mps 729 mmHg 16%
    16:00 +25°C° 0 mm 3 mps 729 mmHg 16%
    17:00 +22°C° 0 mm 3 mps 729 mmHg 18%
    18:00 +20°C° 0 mm 4 mps 729 mmHg 21%
    19:00 +18°C° 0 mm 4 mps 729 mmHg 23%
    20:00 +17°C° 0 mm 4 mps 729 mmHg 24%
    21:00 +17°C° 0 mm 4 mps 729 mmHg 24%
    22:00 +16°C° 0 mm 3 mps 729 mmHg 25%
    23:00 +16°C° 0 mm 3 mps 728 mmHg 27%

    Day after tomorrow, 5 April, Sunday

    Time Temperature Precipitation Wind Pressure Humidity
    00:00 +14°C° 0 mm 3 mps 728 mmHg 30%
    01:00 +14°C° 0 mm 3 mps 728 mmHg 32%
    02:00 +14°C° 0 mm 3 mps 728 mmHg 37%
    03:00 +13°C° 0 mm 3 mps 728 mmHg 41%
    04:00 +13°C° 0 mm 3 mps 728 mmHg 45%
    05:00 +13°C° 0 mm 4 mps 728 mmHg 41%
    06:00 +13°C° 0 mm 5 mps 729 mmHg 37%
    07:00 +14°C° 0 mm 7 mps 729 mmHg 33%
    08:00 +15°C° 0 mm 8 mps 729 mmHg 28%
    09:00 +17°C° 0 mm 9 mps 730 mmHg 23%
    10:00 +19°C° 0 mm 11 mps 730 mmHg 19%
    11:00 +21°C° 0 mm 11 mps 730 mmHg 19%
    12:00 +22°C° 0 mm 11 mps 730 mmHg 18%
    13:00 +22°C° 0 mm 11 mps 730 mmHg 18%
    14:00 +22°C° 0 mm 12 mps 730 mmHg 21%
    15:00 +20°C° 0 mm 13 mps 731 mmHg 23%
    16:00 +20°C° 0 mm 14 mps 731 mmHg 25%
    17:00 +18°C° 0 mm 12 mps 732 mmHg 29%
    18:00 +17°C° 0 mm 11 mps 733 mmHg 34%
    19:00 +15°C° 0 mm 9 mps 735 mmHg 38%
    20:00 +13°C° 0 mm 8 mps 736 mmHg 40%
    21:00 +12°C° 0 mm 7 mps 737 mmHg 41%
    22:00 +12°C° 0 mm 5 mps 738 mmHg 42%
    23:00 +10°C° 0 mm 5 mps 738 mmHg 39%

    6 April, Monday

    Time Temperature Precipitation Wind Pressure Humidity
    00:00 +9°C° 0 mm 5 mps 739 mmHg 35%
    01:00 +9°C° 0 mm 5 mps 740 mmHg 32%
    02:00 +8°C° 0 mm 5 mps 740 mmHg 34%
    03:00 +7°C° 0 mm 4 mps 740 mmHg 36%
    04:00 +7°C° 0 mm 3 mps 741 mmHg 38%
    05:00 +8°C° 0 mm 3 mps 741 mmHg 36%
    06:00 +8°C° 0 mm 2 mps 741 mmHg 34%
    07:00 +10°C° 0 mm 1 mps 742 mmHg 33%
    08:00 +11°C° 0 mm 1 mps 742 mmHg 29%
    09:00 +13°C° 0 mm 1 mps 742 mmHg 26%
    10:00 +15°C° 0 mm 2 mps 742 mmHg 23%
    11:00 +16°C° 0 mm 2 mps 741 mmHg 21%
    12:00 +17°C° 0 mm 2 mps 741 mmHg 19%
    13:00 +18°C° 0 mm 2 mps 740 mmHg 17%
    14:00 +18°C° 0 mm 2 mps 739 mmHg 17%
    15:00 +19°C° 0 mm 2 mps 739 mmHg 16%
    16:00 +19°C° 0 mm 3 mps 738 mmHg 16%
    17:00 +17°C° 0 mm 3 mps 738 mmHg 18%
    18:00 +16°C° 0 mm 3 mps 738 mmHg 20%
    19:00 +13°C° 0 mm 3 mps 738 mmHg 22%
    20:00 +12°C° 0 mm 3 mps 738 mmHg 23%
    21:00 +12°C° 0 mm 4 mps 739 mmHg 23%
    22:00 +12°C° 0 mm 4 mps 739 mmHg 24%
    23:00 +11°C° 0 mm 4 mps 739 mmHg 25%

    7 April, Tuesday

    Time Temperature Precipitation Wind Pressure Humidity
    00:00 +10°C° 0 mm 3 mps 738 mmHg 27%
    01:00 +10°C° 0 mm 3 mps 738 mmHg 29%
    02:00 +9°C° 0 mm 3 mps 738 mmHg 29%
    03:00 +9°C° 0 mm 3 mps 738 mmHg 30%
    04:00 +9°C° 0 mm 2 mps 738 mmHg 31%
    05:00 +10°C° 0 mm 2 mps 738 mmHg 30%
    06:00 +10°C° 0 mm 2 mps 738 mmHg 28%
    07:00 +12°C° 0 mm 2 mps 738 mmHg 27%
    08:00 +14°C° 0 mm 3 mps 738 mmHg 25%
    09:00 +18°C° 0 mm 4 mps 738 mmHg 23%
    10:00 +21°C° 0 mm 5 mps 739 mmHg 22%
    11:00 +22°C° 0 mm 5 mps 738 mmHg 20%
    12:00 +23°C° 0 mm 6 mps 738 mmHg 19%
    13:00 +26°C° 0 mm 6 mps 737 mmHg 18%
    14:00 +26°C° 0 mm 6 mps 737 mmHg 18%
    15:00 +24°C° 0 mm 6 mps 737 mmHg 18%
    16:00 +24°C° 0 mm 6 mps 736 mmHg 19%
    17:00 +22°C° 0 mm 5 mps 736 mmHg 22%
    18:00 +20°C° 0 mm 5 mps 737 mmHg 26%
    19:00 +18°C° 0 mm 4 mps 737 mmHg 30%
    20:00 +17°C° 0 mm 4 mps 737 mmHg 32%
    21:00 +17°C° 0 mm 4 mps 737 mmHg 35%
    22:00 +15°C° 0 mm 4 mps 737 mmHg 37%
    23:00 +14°C° 0 mm 4 mps 737 mmHg 41%

    8 April, Wednesday

    Time Temperature Precipitation Wind Pressure Humidity
    00:00 +14°C° 0 mm 4 mps 737 mmHg 45%
    01:00 +13°C° 0 mm 3 mps 737 mmHg 49%
    02:00 +12°C° 0 mm 3 mps 736 mmHg 55%
    03:00 +12°C° 0 mm 3 mps 736 mmHg 60%
    04:00 +11°C° 0 mm 3 mps 736 mmHg 65%
    05:00 +12°C° 0 mm 3 mps 736 mmHg 63%
    06:00 +13°C° 0 mm 3 mps 736 mmHg 62%
    07:00 +13°C° 0 mm 4 mps 736 mmHg 60%
    08:00 +17°C° 0 mm 4 mps 736 mmHg 53%
    09:00 +20°C° 0 mm 5 mps 736 mmHg 46%
    10:00 +22°C° 0 mm 5 mps 736 mmHg 39%
    11:00 +24°C° 0 mm 6 mps 736 mmHg 35%
    12:00 +27°C° 0 mm 6 mps 735 mmHg 31%
    13:00 +29°C° 0 mm 7 mps 735 mmHg 28%
    14:00 +29°C° 0 mm 7 mps 734 mmHg 28%
    15:00 +29°C° 0 mm 7 mps 734 mmHg 29%
    16:00 +29°C° 0 mm 7 mps 733 mmHg 29%
    17:00 +28°C° 0 mm 6 mps 733 mmHg 33%
    18:00 +26°C° 0 mm 6 mps 733 mmHg 37%
    19:00 +23°C° 0 mm 6 mps 733 mmHg 41%
    20:00 +23°C° 0 mm 6 mps 733 mmHg 43%
    21:00 +22°C° 0 mm 6 mps 733 mmHg 44%
    22:00 +21°C° 0 mm 7 mps 733 mmHg 46%
    23:00 +21°C° 0 mm 6 mps 733 mmHg 48%
    Show more